Location: Albuquerque Trailhead
(34.7934°N, 106.3736°W)
Time: 03:07:21
(UTC+00:00)

Cosmos 1725 Rocket - Pass Details

Date: 20 June 2021
Orbit: 962 x 990 km, 82.9° (Epoch: 29 July)

Event Time Altitude Azimuth Distance (km) Brightness Sun altitude
Rises 04:48:01 0° 354° (N) 3,652 8.0 -23.1°
Reaches altitude 10° 04:50:31 10° 356° (N) 2,703 7.1 -23.4°
Maximum altitude 04:56:43 81° 84° (E) 980 3.9 -24.1°
Enters shadow 04:58:17 53° 162° (SSE) 1,170 4.0 -24.2°
